Location: Siratepeler Tepesi
(39.1042°N, 32.0781°E)
Time: 01:26:47
(UTC+00:00)

Cosmos 2074 Rocket - Pass Details

Date: 11 April 2026
Orbit: 967 x 984 km, 82.9° (Epoch: 11 May)

Event Time Altitude Azimuth Distance (km) Brightness Sun altitude
Rises 17:27:28 0° 188° (S) 3,645 6.9 -12.4°
Reaches altitude 10° 17:29:57 10° 189° (S) 2,704 6.2 -12.9°
Maximum altitude 17:36:09 81° 276° (W) 990 4.1 -14.0°
Drops below altitude 10° 17:42:26 10° 5° (N) 2,732 6.6 -15.1°
Sets 17:44:58 0° 6° (N) 3,686 7.3 -15.5°
